Regional Weather Roundup
Issued by NWS

Home | Current Version | Previous Version | Graphics & Text | Print | Product List | Glossary On
Versions: 1 2 3 4 5 6 7 8 9 10 11 12 13 14 15 16 17 18 19 20 21 22 23 24 25 26 27 28 29 30 31 32 33 34 35 36 37 38 39 40 41 42 43 44 45 46 47 48 49 50
000
ASUS43 KOAX 211410
RWRNE

WEATHER ROUNDUP FOR NEBRASKA
NATIONAL WEATHER SERVICE OMAHA NE
900 AM CDT MON APR 21 2014

NOTES: SATELLITE DATA IS BEING USED TO AUGMENT CLOUD COVER ABOVE
       12000 FEET.
       "FAIR" INDICATES FEW OR NO CLOUDS BELOW 12,000 FEET WITH NO
       SIGNIFICANT WEATHER AND/OR OBSTRUCTIONS TO VISIBILITY.

  * THESE STATIONS DO NOT REPORT WEATHER SUCH AS RAIN...SNOW OR FOG.

NEZ001>004-019>022-054>056-211500-
NEBRASKA PANHANDLE

CITY           SKY/WX    TMP DP  RH WIND       PRES   REMARKS
SCOTTSBLUFF    MOSUNNY   46  30  53 NW9       30.27R
ALLIANCE       MOSUNNY   49  28  44 N8        30.24R
CHADRON        MOSUNNY   42  33  70 SW6       30.26R
KIMBALL        SUNNY     47  26  44 NW5       30.27R
SIDNEY         MOSUNNY   50  28  42 N8        30.27R
$$

NEZ057>060-069>072-079>082-211500-
SOUTHWEST NEBRASKA

CITY           SKY/WX    TMP DP  RH WIND       PRES   REMARKS
NORTH PLATTE   SUNNY     55  28  35 N12       30.18R
IMPERIAL       SUNNY     52  28  39 N15       30.20R
LEXINGTON      SUNNY     56  36  46 N8        30.14R
MCCOOK         SUNNY     57  31  37 NE18      30.15R
OGALLALA       SUNNY     53  26  34 N7        30.22S
$$

NEZ005>010-023>029-035>040-094-211500-
NORTH CENTRAL NEBRASKA

CITY           SKY/WX    TMP DP  RH WIND       PRES   REMARKS
VALENTINE      SUNNY     50  30  46 NW7       30.19R
AINSWORTH      SUNNY     53  31  42 N12       30.18R
BROKEN BOW     MOSUNNY   52  35  52 N24       30.13R
O`NEILL        SUNNY     56  31  38 NW13      30.14R
ORD            MOSUNNY   56  36  47 N14       30.11R
THEDFORD       SUNNY     55  26  32 N10       30.20S
$$

NEZ041-046>049-061>064-073>077-083>087-211500-
SOUTH CENTRAL NEBRASKA

CITY           SKY/WX    TMP DP  RH WIND       PRES   REMARKS
GRAND ISLAND   MOSUNNY   56  39  53 N14       30.10R
AURORA         PTSUNNY   57  43  58 N17       30.08R
HASTINGS       MOSUNNY   56  43  61 N16       30.09R
HEBRON         CLOUDY    61  56  84 NW12G17   30.02R
HOLDREGE       SUNNY     54  40  58 N15G21    30.12R
KEARNEY *      SUNNY     54  39  58 N16       30.12R
YORK           PTSUNNY   57  41  54 N18G30    30.05R
$$

NEZ011>018-030>034-042>045-211500-
NORTHEAST NEBRASKA

CITY           SKY/WX    TMP DP  RH WIND       PRES   REMARKS
NORFOLK        PTSUNNY   59  35  40 NW10      30.07R
ALBION         CLOUDY    57  31  37 N13G22    30.09R
BLAIR          CLOUDY    61  56  83 NW10      29.97S
COLUMBUS *     PTSUNNY   61  37  41 N22G28    30.06R
FREMONT        PTSUNNY   59  51  74 NW16G22   30.00R
TEKAMAH        CLOUDY    61  53  75 NW20      29.97S
$$

NEZ050>053-065>068-078-088>093-211500-
SOUTHEAST NEBRASKA

CITY           SKY/WX    TMP DP  RH WIND       PRES   REMARKS
LINCOLN        CLOUDY    63  52  67 N18       29.99R
OMAHA EPPLEY   CLOUDY    62  58  86 NW3       29.97R FOG
BEATRICE       CLOUDY    61  56  84 NW7       29.99S
FALLS CITY     RAIN      61  57  87 W7        29.97S FOG
NEBRASKA CITY  CLOUDY    60  60  99 W8        29.98S
PLATTSMOUTH    CLOUDY    60  57  91 W5        29.97S FOG
$$

NEZ044-045-051>053-067-211500-
OMAHA AREA

CITY           SKY/WX    TMP DP  RH WIND       PRES   REMARKS
OMAHA EPPLEY   CLOUDY    62  58  86 NW3       29.97R FOG
BLAIR          CLOUDY    61  56  83 NW10      29.97S
FREMONT        PTSUNNY   59  51  74 NW16G22   30.00R
MILLARD        CLOUDY    61  56  82 W3        29.97R
OFFUTT AFB     PTSUNNY   61  61 100 W5        29.97R
PLATTSMOUTH    CLOUDY    60  57  91 W5        29.97S FOG
WAHOO          FAIR      60  51  71 NW21G29   29.99R
$$



USA.gov is the U.S. government's official web portal to all federal, state and local government web resources and services.